Regional Weather Roundup
Issued by NWS Boston, MA

Current Version | Previous Version | Text Only | Print | Product List | Glossary Off
Versions: 1 2 3 4 5 6 7 8 9 10 11 12 13 14 15 16 17 18 19 20 21 22 23 24 25 26 27 28

000
ASUS41 KBOX 241010
RWRBOX

REGIONAL WEATHER ROUNDUP
NATIONAL WEATHER SERVICE TAUNTON MA
600 AM EDT FRI MAR 24 2017

NOTE:  "FAIR" INDICATES FEW OR NO CLOUDS BELOW 12,000 FEET WITH NO
SIGNIFICANT WEATHER AND/OR OBSTRUCTIONS TO VISIBILITY.

MAZALL-241100-
EASTERN MASSACHUSETTS

CITY           SKY/WX    TMP DP  RH WIND       PRES   REMARKS
BOSTON         MOCLDY    28  18  66 S8        30.49F WCI  20
BEVERLY        MOCLDY    24  13  62 CALM      30.47F
LAWRENCE       CLOUDY    25  10  53 S3        30.49S
BEDFORD        PTCLDY    23  11  60 CALM      30.47S
BLUE HILL      NOT AVBL
NORWOOD        CLOUDY    22  16  78 CALM      30.50R
MARSHFIELD     PTCLDY    23  12  63 CALM      30.49F
PLYMOUTH       CLEAR     22  11  62 CALM      30.50S
TAUNTON        CLOUDY    23  13  65 SE6       30.49F WCI  16
NEW BEDFORD    CLOUDY    24  15  68 CALM      30.50S
$$

MAZALL-241100-
CAPE COD AND THE ISLANDS

CITY           SKY/WX    TMP DP  RH WIND       PRES   REMARKS
FALMOUTH       MOCLDY    21  10  63 MISG      30.51S
HYANNIS        CLEAR     22  11  62 CALM      30.49F
CHATHAM        CLEAR     25  15  66 CALM      30.52S
PROVINCETOWN   CLEAR     25  13  60 SE3       30.51F
NANTUCKET      PTCLDY    23  14  68 E3        30.52S
MARTHAS VNYRD  MOCLDY    24  15  68 SW3       30.52R
$$

MAZALL-241100-
CENTRAL AND WESTERN MASSACHUSETTS

CITY           SKY/WX    TMP DP  RH WIND       PRES   REMARKS
WORCESTER      CLOUDY    25   4  40 SW8       30.42S WCI  16
FITCHBURG      PTCLDY    24  15  68 CALM      30.46S
ORANGE         CLOUDY    24  18  77 CALM      30.44R
SPRINGFIELD    CLOUDY    27  15  60 CALM      30.44S
WESTFIELD      CLOUDY    26  14  60 S3        30.45S
NORTH ADAMS    CLOUDY    28   9  44 E6        30.40R WCI  22
PITTSFIELD     CLOUDY    23  12  62 CALM      30.38R
$$

RIZALL-241100-
RHODE ISLAND

CITY           SKY/WX    TMP DP  RH WIND       PRES   REMARKS
PROVIDENCE     CLOUDY    25   9  50 CALM      30.50S
NEWPORT        CLOUDY    25  18  74 SE3       30.49F
BLOCK ISLAND   PTCLDY    33  26  75 SW6       30.51S WCI  28
SMITHFIELD     PTCLDY    25   9  50 CALM      30.46F
WESTERLY       CLOUDY    23  18  81 CALM      30.51S
$$

CTZALL-241100-
CONNECTICUT

CITY           SKY/WX    TMP DP  RH WIND       PRES   REMARKS
BRADLEY INTL   CLOUDY    29  13  51 S7        30.47S WCI  22
HARTFORD       CLOUDY    29  18  63 CALM      30.48S
BRIDGEPORT     CLOUDY    34  26  72 SW6       30.49R WCI  29
DANBURY        CLOUDY    28  19  69 CALM      30.46S
GROTON         CLOUDY    25  16  68 CALM      30.50R
NEW HAVEN      CLOUDY    32  25  75 S5        30.49S WCI  27
CHESTER        NOT AVBL
MERIDEN        CLOUDY    28  18  66 CALM      30.48S
WILLIMANTIC    CLOUDY    26  16  65 CALM      30.49S
OXFORD         CLOUDY    30  21  69 S6        30.45R WCI  24
$$

MEZ002-015-021-024-NHZ003-005-008-011-012-014-VTZ005-008-241100-
NORTHERN NEW ENGLAND

CITY           SKY/WX    TMP DP  RH WIND       PRES   REMARKS
PORTLAND ME    CLOUDY    25   5  42 SW3       30.49S
BANGOR ME      CLOUDY    17   5  59 S5        30.47R WCI  10
CONCORD NH     CLOUDY    26  12  55 CALM      30.46R
MANCHESTER NH  CLOUDY    26  10  50 CALM      30.46R
NASHUA NH      NOT AVBL
PORTSMOUTH NH  MOCLDY    26   6  43 CALM      30.47R
JAFFREY NH     CLOUDY    24  10  55 CALM      30.41R
KEENE NH       NOT AVBL
BURLINGTON VT  CLOUDY    31   9  39 S15G26    30.32F WCI  20
MT. WASHINGTON CLOUDY     9 -13  37 W39G46      N/A  WCI -17
$$

NYZ052-076-241100-
EASTERN NEW YORK

CITY           SKY/WX    TMP DP  RH WIND       PRES   REMARKS
ALBANY         CLOUDY    31   9  39 S8        30.40S WCI  23
NEW YORK CITY  CLOUDY    38  19  46 SW8       30.49R
$$

ANZALL-241100-
MARINE OBSERVATIONS

STATION/POSITION TIME  TEMP    WIND        PRES    VSBY  WAVE
                       AIR SEA DIR/SP/G                  HT/PER
                 (UTC) (F)     (DEG/KT/KT) (MB)    (MI)  (FT/S)
BOSTON BUOY      0950   35 40  160/  6/  8 1032.1F         1/ 6
BUZZARDS BAY     0900   35     200/  4/  5 1033.7F
NANTUCKET SOUND  0950      38              1033.1F         1
MASS BAY-STELLWA 0904   34 38  120/  4/  4 1031.6F         2/ 4
ISLE OF SHOALS   0900   32     160/  7/  7 1032.3F
S OF BLOCK IS    0955      40                N/A           1/ 4
$$

......................KEY.........................
  SKY/WX - SKY CONDITION/PRESENT WEATHER
  TMP    - TEMPERATURE IN FAHRENHEIT
  DWPT   - DEWPOINT IN FAHRENHEIT
  RH     - RELATIVE HUMIDITY IN PERCENT
  WIND   - DIRECTION AND SPEED IN MPH
  PRES   - MEAN SEA LEVEL PRESSURE IN INCHES OF HG
  WCI    - WIND CHILL INDEX
  VSB    - VISIBILITY IN MILES
  HX     - HEAT INDEX
  TC     - TEMPERATURE IN CELSIUS
  VRB    - VARIABLE WIND DIRECTION
  N/A    - NOT AVAILABLE




USA.gov is the U.S. government's official web portal to all federal, state and local government web resources and services.